COSMOS 614

Satellite information

Favourite Embed

Satellite Type and Status

PAYLOADIN ORBIT

Key statistics

Satellite COSMOS 614 at a glance.

Uptime

18897

Days in orbit

Revolutions

≈ 14.4

Per day

Orbit

LEO

Low Earth Orbit

Inclination

74.1

Latest

Satellite identification and parameters

Extended collection of information and parameters for COSMOS 614.

Object identification

Identified? True

Debris? False

Object name: COSMOS 614

International designator: 1973-098A

Object number (NORAD): 6965

Object ID (CCSDS): 6965

Country: COMMONWEALTH OF INDEPENDENT STATES (CIS)

Current information (Y/N): Y

RCS size: LARGE

Orbital parameters

Period: 100.0 minutes

Inclination: 74.0553 deg

SMA: 7136.636 km

Apoapsis: 775.28 km

Periapsis: 741.722 km

RAAN: 212.8648 deg

Eccentricy: 0.00235113

Argument of periapsis: 216.9584 deg

Mean anomaly: 142.9952 deg

Mean motion: 14.39999797 rev/day

Mean motion (dot): 0.00000263 rev/day2

B* drag term: 0.000091476765 1/REarth

Two-line elements (TLE)

Creation date: Aug. 30, 2025, 3:38 a.m.

Reference frame: TEME

Reference center: EARTH

Epoch: Aug. 29, 2025, 10:21 p.m. UTC

TLE line 0: 0 COSMOS 614

TLE line 1: 1 06965U 73098A 25241.93130884 .00000263 00000-0 91477-4 0 9996

TLE line 2: 2 06965 74.0553 212.8648 0023511 216.9584 142.9952 14.39999797712379

Live tracking on map

Real-time ground track for satellite COSMOS 614.

In-orbit conjunctions

A list of the most updated potential collisions computed for object COSMOS 614.

Target Orbit TCA Probability of collision Miss distance Type
METEOR 2-8 DEB LEO 2025-06-27 05:56:34 0.0001479363 341.0 (m) DEBRIS
FENGYUN 1C DEB SSO 2025-06-22 09:16:36 0.0001368509 441.0 (m) DEBRIS
DMSP 5D-2 F13 DEB SSO 2025-05-19 19:46:58 0.0007397344 54.0 (m) DEBRIS
FENGYUN 1C DEB SSO 2025-02-25 12:00:52 0.0002059715 265.0 (m) DEBRIS
CZ-6A DEB LEO 2025-02-10 18:11:18 0.0004007278 391.0 (m) DEBRIS

Associated space launch

Military communications satellite

COSMOS 614 was lifted into orbit during the mission ‘Kosmos-3M | Strela-2M 8’, on board a Kosmos-3M space rocket.

The launch took place on Dec. 4, 1973, 3 p.m. from 132/2.

For more information about the launch, click the button.

Launch to space Kosmos-3M | Strela-2M 8
Kosmos-3M | Strela-2M 8

Agency: N/A

Status: Launch Successful

Launch date: Dec. 4, 1973, 3 p.m. UTC

Rocket: Kosmos-3M

Launch pad: 132/2

Location: Plesetsk Cosmodrome, Russian Federation

...

Latest news about this satellite

There are no fresh news available about this satellite. Check back as we update our databases every day.


Newsletter sign-up

Weekly statistics, charts and insights to help you stay on top of the space industry.